{"data":{"norad_id":45379,"intl_designator":"2020-019V","name":"STARLINK-1319","alt_names":[],"object_type":"PAYLOAD","status":"ACTIVE","operator":null,"country":"US","launch_date":"2020-03-18","launch_site_code":"AFETR","launch_vehicle":null,"mission":null,"orbit_class":"UNKNOWN","rcs_meters":null,"size_class":null,"mass_kg":null,"dimensions":null,"purposes":["comms"],"wikipedia_slug":null,"has_3d_model":false,"image_url":null,"decayed_at":null,"tle_current":{"epoch":"2026-09-18T12:09:13.303872Z","epoch_age_seconds":186742,"freshness":"STALE","line1":"1 45379U 20019V   26261.50640398  .06250019  12345-4  56069-3 0  9993","line2":"2 45379  53.0138 239.2487 0002541 316.2310  43.8534 16.38279952360775","mean_motion":16.38279952,"eccentricity":0.0002541,"inclination_deg":53.0138,"raan_deg":239.2487,"arg_perigee_deg":316.231,"mean_anomaly_deg":43.8534,"bstar":0.00056069,"rev_number":36077,"period_min":87.89706534845,"perigee_km":168.7180954096,"apogee_km":172.04605280306,"semimajor_km":6548.5190741063,"source":"CELESTRAK","updated_at":"2026-09-19T09:01:38.365951Z"}}}